Year,Month,Day,Hour,Minute,Value (Times are PST for temperature in C)
2012,08,03,00,00,16.20
2012,08,03,00,01,16.30
2012,08,03,00,02,16.30
2012,08,03,00,03,16.30
2012,08,03,00,04,16.30
2012,08,03,00,05,16.30
2012,08,03,00,06,16.30
2012,08,03,00,07,16.30
2012,08,03,00,08,16.30
2012,08,03,00,09,16.30
2012,08,03,00,10,16.30
2012,08,03,00,11,16.30
2012,08,03,00,12,16.30
2012,08,03,00,13,16.30
2012,08,03,00,14,16.30
2012,08,03,00,15,16.30
2012,08,03,00,16,16.30
2012,08,03,00,17,16.30
2012,08,03,00,18,16.30
2012,08,03,00,19,16.30
2012,08,03,00,20,16.30
2012,08,03,00,21,16.30
2012,08,03,00,22,16.30
2012,08,03,00,23,16.30
2012,08,03,00,24,16.30
2012,08,03,00,25,16.30
2012,08,03,00,26,16.30
2012,08,03,00,27,16.30
2012,08,03,00,28,16.40
2012,08,03,00,29,16.40
2012,08,03,00,30,16.40
2012,08,03,00,31,16.40
2012,08,03,00,32,16.40
2012,08,03,00,33,16.40
2012,08,03,00,34,16.30
2012,08,03,00,35,16.40
2012,08,03,00,36,16.40
2012,08,03,00,37,16.40
2012,08,03,00,38,16.50
2012,08,03,00,39,16.60
2012,08,03,00,40,16.70
2012,08,03,00,41,16.80
2012,08,03,00,42,16.90
2012,08,03,00,43,17.10
2012,08,03,00,44,17.20
2012,08,03,00,45,17.40
2012,08,03,00,46,17.50
2012,08,03,00,47,17.50
2012,08,03,00,48,17.60
2012,08,03,00,49,17.70
2012,08,03,00,50,17.70
2012,08,03,00,51,17.70
2012,08,03,00,52,17.80
2012,08,03,00,53,17.80
2012,08,03,00,54,17.80
2012,08,03,00,55,17.80
2012,08,03,00,56,17.80
2012,08,03,00,57,17.80
2012,08,03,00,58,17.80
2012,08,03,00,59,17.80
2012,08,03,01,00,17.80
2012,08,03,01,01,17.80
2012,08,03,01,02,17.80
2012,08,03,01,03,17.80
2012,08,03,01,04,17.80
2012,08,03,01,05,17.80
2012,08,03,01,06,17.80
2012,08,03,01,07,17.80
2012,08,03,01,08,17.80
2012,08,03,01,09,17.80
2012,08,03,01,10,17.80
2012,08,03,01,11,17.80
2012,08,03,01,12,17.80
2012,08,03,01,13,17.70
2012,08,03,01,14,17.70
2012,08,03,01,15,17.70
2012,08,03,01,16,17.70
2012,08,03,01,17,17.70
2012,08,03,01,18,17.70
2012,08,03,01,19,17.70
2012,08,03,01,20,17.60
2012,08,03,01,21,17.60
2012,08,03,01,22,17.60
2012,08,03,01,23,17.60
2012,08,03,01,24,17.60
2012,08,03,01,25,17.60
2012,08,03,01,26,17.60
2012,08,03,01,27,17.60
2012,08,03,01,28,17.50
2012,08,03,01,29,17.50
2012,08,03,01,30,17.50
2012,08,03,01,31,17.40
2012,08,03,01,32,17.40
2012,08,03,01,33,17.40
2012,08,03,01,34,17.40
2012,08,03,01,35,17.30
2012,08,03,01,36,17.30
2012,08,03,01,37,17.30
2012,08,03,01,38,17.30
2012,08,03,01,39,17.30
2012,08,03,01,40,17.20
2012,08,03,01,41,17.20
2012,08,03,01,42,17.20
2012,08,03,01,43,17.20
2012,08,03,01,44,17.20
2012,08,03,01,45,17.20
2012,08,03,01,46,17.20
2012,08,03,01,47,17.20
2012,08,03,01,48,17.20
2012,08,03,01,49,17.20
2012,08,03,01,50,17.20
2012,08,03,01,51,17.20
2012,08,03,01,52,17.20
2012,08,03,01,53,17.10
2012,08,03,01,54,17.10
2012,08,03,01,55,17.10
2012,08,03,01,56,17.10
2012,08,03,01,57,17.10
2012,08,03,01,58,17.10
2012,08,03,01,59,17.00
2012,08,03,02,00,17.00
2012,08,03,02,01,17.00
2012,08,03,02,02,17.00
2012,08,03,02,03,16.90
2012,08,03,02,04,16.90
2012,08,03,02,05,16.90
2012,08,03,02,06,16.90
2012,08,03,02,07,16.90
2012,08,03,02,08,16.90
2012,08,03,02,09,16.80
2012,08,03,02,10,16.80
2012,08,03,02,11,16.80
2012,08,03,02,12,16.80
2012,08,03,02,13,16.80
2012,08,03,02,14,16.80
2012,08,03,02,15,16.80
2012,08,03,02,16,16.80
2012,08,03,02,17,16.80
2012,08,03,02,18,16.80
2012,08,03,02,19,16.90
2012,08,03,02,20,16.90
2012,08,03,02,21,16.90
2012,08,03,02,22,16.90
2012,08,03,02,23,16.90
2012,08,03,02,24,16.90
2012,08,03,02,25,16.90
2012,08,03,02,26,17.00
2012,08,03,02,27,17.00
2012,08,03,02,28,17.00
2012,08,03,02,29,17.10
2012,08,03,02,30,17.10
2012,08,03,02,31,17.10
2012,08,03,02,32,17.10
2012,08,03,02,33,17.20
2012,08,03,02,34,17.20
2012,08,03,02,35,17.20
2012,08,03,02,36,17.20
2012,08,03,02,37,17.20
2012,08,03,02,38,17.20
2012,08,03,02,39,17.20
2012,08,03,02,40,17.20
2012,08,03,02,41,17.20
2012,08,03,02,42,17.20
2012,08,03,02,43,17.20
2012,08,03,02,44,17.20
2012,08,03,02,45,17.20
2012,08,03,02,46,17.10
2012,08,03,02,47,17.10
2012,08,03,02,48,17.10
2012,08,03,02,49,17.10
2012,08,03,02,50,17.10
2012,08,03,02,51,17.10
2012,08,03,02,52,17.00
2012,08,03,02,53,17.00
2012,08,03,02,54,17.00
2012,08,03,02,55,16.90
2012,08,03,02,56,16.90
2012,08,03,02,57,16.90
2012,08,03,02,58,16.90
2012,08,03,02,59,16.90
2012,08,03,03,00,16.90
2012,08,03,03,01,16.90
2012,08,03,03,02,16.80
2012,08,03,03,03,16.80
2012,08,03,03,04,16.80
2012,08,03,03,05,16.80
2012,08,03,03,06,16.80
2012,08,03,03,07,16.80
2012,08,03,03,08,16.70
2012,08,03,03,09,16.70
2012,08,03,03,10,16.70
2012,08,03,03,11,16.70
2012,08,03,03,12,16.70
2012,08,03,03,13,16.70
2012,08,03,03,14,16.70
2012,08,03,03,15,16.70
2012,08,03,03,16,16.70
2012,08,03,03,17,16.70
2012,08,03,03,18,16.70
2012,08,03,03,19,16.60
2012,08,03,03,20,16.60
2012,08,03,03,21,16.60
2012,08,03,03,22,16.60
2012,08,03,03,23,16.60
2012,08,03,03,24,16.60
2012,08,03,03,25,16.60
2012,08,03,03,26,16.60
2012,08,03,03,27,16.60
2012,08,03,03,28,16.60
2012,08,03,03,29,16.60
2012,08,03,03,30,16.50
2012,08,03,03,31,16.50
2012,08,03,03,32,16.50
2012,08,03,03,33,16.40
2012,08,03,03,34,16.40
2012,08,03,03,35,16.30
2012,08,03,03,36,16.30
2012,08,03,03,37,16.30
2012,08,03,03,38,16.20
2012,08,03,03,39,16.10
2012,08,03,03,40,16.00
2012,08,03,03,41,15.90
2012,08,03,03,42,15.90
2012,08,03,03,43,15.80
2012,08,03,03,44,15.70
2012,08,03,03,45,15.60
2012,08,03,03,46,15.50
2012,08,03,03,47,15.50
2012,08,03,03,48,15.40
2012,08,03,03,49,15.40
2012,08,03,03,50,15.30
2012,08,03,03,51,15.30
2012,08,03,03,52,15.20
2012,08,03,03,53,15.20
2012,08,03,03,54,15.10
2012,08,03,03,55,15.10
2012,08,03,03,56,15.00
2012,08,03,03,57,15.00
2012,08,03,03,58,14.90
2012,08,03,03,59,14.90
2012,08,03,04,00,14.90
2012,08,03,04,01,14.80
2012,08,03,04,02,14.80
2012,08,03,04,03,14.80
2012,08,03,04,04,14.80
2012,08,03,04,05,14.80
2012,08,03,04,06,14.80
2012,08,03,04,07,14.70
2012,08,03,04,08,14.70
2012,08,03,04,09,14.70
2012,08,03,04,10,14.70
2012,08,03,04,11,14.70
2012,08,03,04,12,14.60
2012,08,03,04,13,14.60
2012,08,03,04,14,14.60
2012,08,03,04,15,14.60
2012,08,03,04,16,14.60
2012,08,03,04,17,14.60
2012,08,03,04,18,14.50
2012,08,03,04,19,14.50
2012,08,03,04,20,14.50
2012,08,03,04,21,14.40
2012,08,03,04,22,14.40
2012,08,03,04,23,14.40
2012,08,03,04,24,14.40
2012,08,03,04,25,14.40
2012,08,03,04,26,14.40
2012,08,03,04,27,14.40
2012,08,03,04,28,14.40
2012,08,03,04,29,14.30
2012,08,03,04,30,14.30
2012,08,03,04,31,14.30
2012,08,03,04,32,14.30
2012,08,03,04,33,14.20
2012,08,03,04,34,14.20
2012,08,03,04,35,14.20
2012,08,03,04,36,14.20
2012,08,03,04,37,14.10
2012,08,03,04,38,14.10
2012,08,03,04,39,14.10
2012,08,03,04,40,14.10
2012,08,03,04,41,14.00
2012,08,03,04,42,14.00
2012,08,03,04,43,14.00
2012,08,03,04,44,14.00
2012,08,03,04,45,13.90
2012,08,03,04,46,14.00
2012,08,03,04,47,14.00
2012,08,03,04,48,14.00
2012,08,03,04,49,14.00
2012,08,03,04,50,14.10
2012,08,03,04,51,14.20
2012,08,03,04,52,14.30
2012,08,03,04,53,14.40
2012,08,03,04,54,14.50
2012,08,03,04,55,14.60
2012,08,03,04,56,14.70
2012,08,03,04,57,14.80
2012,08,03,04,58,14.90
2012,08,03,04,59,15.00
2012,08,03,05,00,15.10
2012,08,03,05,01,15.10
2012,08,03,05,02,15.20
2012,08,03,05,03,15.30
2012,08,03,05,04,15.40
2012,08,03,05,05,15.40
2012,08,03,05,06,15.40
2012,08,03,05,07,15.40
2012,08,03,05,08,15.40
2012,08,03,05,09,15.40
2012,08,03,05,10,15.30
2012,08,03,05,11,15.20
2012,08,03,05,12,15.10
2012,08,03,05,13,15.00
2012,08,03,05,14,15.00
2012,08,03,05,15,14.90
2012,08,03,05,16,14.80
2012,08,03,05,17,14.80
2012,08,03,05,18,14.70
2012,08,03,05,19,14.70
2012,08,03,05,20,14.60
2012,08,03,05,21,14.50
2012,08,03,05,22,14.50
2012,08,03,05,23,14.40
2012,08,03,05,24,14.40
2012,08,03,05,25,14.30
2012,08,03,05,26,14.30
2012,08,03,05,27,14.20
2012,08,03,05,28,14.20
2012,08,03,05,29,14.20
2012,08,03,05,30,14.10
2012,08,03,05,31,14.10
2012,08,03,05,32,14.10
2012,08,03,05,33,14.10
2012,08,03,05,34,14.10
2012,08,03,05,35,14.00
2012,08,03,05,36,14.00
2012,08,03,05,37,14.00
2012,08,03,05,38,14.00
2012,08,03,05,39,14.00
2012,08,03,05,40,13.90
2012,08,03,05,41,13.90
2012,08,03,05,42,13.90
2012,08,03,05,43,13.90
2012,08,03,05,44,13.90
2012,08,03,05,45,13.90
2012,08,03,05,46,13.90
2012,08,03,05,47,14.00
2012,08,03,05,48,14.00
2012,08,03,05,49,14.00
2012,08,03,05,50,14.10
2012,08,03,05,51,14.10
2012,08,03,05,52,14.10
2012,08,03,05,53,14.10
2012,08,03,05,54,14.10
2012,08,03,05,55,14.10
2012,08,03,05,56,14.10
2012,08,03,05,57,14.10
2012,08,03,05,58,14.10
2012,08,03,05,59,14.10
2012,08,03,06,00,14.10
2012,08,03,06,01,14.10
2012,08,03,06,02,14.20
2012,08,03,06,03,14.20
2012,08,03,06,04,14.20
2012,08,03,06,05,14.20
2012,08,03,06,06,14.20
2012,08,03,06,07,14.20
2012,08,03,06,08,14.20
2012,08,03,06,09,14.20
2012,08,03,06,10,14.20
2012,08,03,06,11,14.20
2012,08,03,06,12,14.20
2012,08,03,06,13,14.20
2012,08,03,06,14,14.20
2012,08,03,06,15,14.20
2012,08,03,06,16,14.20
2012,08,03,06,17,14.20
2012,08,03,06,18,14.20
2012,08,03,06,19,14.20
2012,08,03,06,20,14.20
2012,08,03,06,21,14.20
2012,08,03,06,22,14.20
2012,08,03,06,23,14.20
2012,08,03,06,24,14.20
2012,08,03,06,25,14.20
2012,08,03,06,26,14.20
2012,08,03,06,27,14.20
2012,08,03,06,28,14.20
2012,08,03,06,29,14.20
2012,08,03,06,30,14.30
2012,08,03,06,31,14.30
2012,08,03,06,32,14.30
2012,08,03,06,33,14.30
2012,08,03,06,34,14.40
2012,08,03,06,35,14.40
2012,08,03,06,36,14.40
2012,08,03,06,37,14.50
2012,08,03,06,38,14.50
2012,08,03,06,39,14.60
2012,08,03,06,40,14.60
2012,08,03,06,41,14.60
2012,08,03,06,42,14.70
2012,08,03,06,43,14.70
2012,08,03,06,44,14.80
2012,08,03,06,45,14.90
2012,08,03,06,46,14.90
2012,08,03,06,47,14.90
2012,08,03,06,48,14.90
2012,08,03,06,49,15.00
2012,08,03,06,50,15.00
2012,08,03,06,51,15.10
2012,08,03,06,52,15.10
2012,08,03,06,53,15.10
2012,08,03,06,54,15.20
2012,08,03,06,55,15.20
2012,08,03,06,56,15.20
2012,08,03,06,57,15.30
2012,08,03,06,58,15.30
2012,08,03,06,59,15.30
2012,08,03,07,00,15.40
2012,08,03,07,01,15.50
2012,08,03,07,02,15.60
2012,08,03,07,03,15.70
2012,08,03,07,04,15.80
2012,08,03,07,05,15.80
2012,08,03,07,06,15.90
2012,08,03,07,07,16.00
2012,08,03,07,08,16.00
2012,08,03,07,09,16.10
2012,08,03,07,10,16.10
2012,08,03,07,11,16.10
2012,08,03,07,12,16.10
2012,08,03,07,13,16.20
2012,08,03,07,14,16.20
2012,08,03,07,15,16.20
2012,08,03,07,16,16.20
2012,08,03,07,17,16.20
2012,08,03,07,18,16.20
2012,08,03,07,19,16.30
2012,08,03,07,20,16.30
2012,08,03,07,21,16.30
2012,08,03,07,22,16.30
2012,08,03,07,23,16.40
2012,08,03,07,24,16.40
2012,08,03,07,25,16.40
2012,08,03,07,26,16.50
2012,08,03,07,27,16.50
2012,08,03,07,28,16.60
2012,08,03,07,29,16.60
2012,08,03,07,30,16.70
2012,08,03,07,31,16.70
2012,08,03,07,32,16.80
2012,08,03,07,33,16.80
2012,08,03,07,34,16.90
2012,08,03,07,35,16.90
2012,08,03,07,36,17.00
2012,08,03,07,37,17.00
2012,08,03,07,38,17.00
2012,08,03,07,39,17.10
2012,08,03,07,40,17.10
2012,08,03,07,41,17.20
2012,08,03,07,42,17.20
2012,08,03,07,43,17.20
2012,08,03,07,44,17.30
2012,08,03,07,45,17.30
2012,08,03,07,46,17.30
2012,08,03,07,47,17.40
2012,08,03,07,48,17.40
2012,08,03,07,49,17.50
2012,08,03,07,50,17.50
2012,08,03,07,51,17.60
2012,08,03,07,52,17.60
2012,08,03,07,53,17.70
2012,08,03,07,54,17.80
2012,08,03,07,55,17.80
2012,08,03,07,56,17.90
2012,08,03,07,57,17.90
2012,08,03,07,58,18.00
2012,08,03,07,59,18.10
2012,08,03,08,00,18.10
2012,08,03,08,01,18.20
2012,08,03,08,02,18.20
2012,08,03,08,03,18.30
2012,08,03,08,04,18.30
2012,08,03,08,05,18.30
2012,08,03,08,06,18.30
2012,08,03,08,07,18.30
2012,08,03,08,08,18.30
2012,08,03,08,09,18.40
2012,08,03,08,10,18.40
2012,08,03,08,11,18.40
2012,08,03,08,12,18.50
2012,08,03,08,13,18.50
2012,08,03,08,14,18.60
2012,08,03,08,15,18.60
2012,08,03,08,16,18.60
2012,08,03,08,17,18.60
2012,08,03,08,18,18.60
2012,08,03,08,19,18.70
2012,08,03,08,20,18.70
2012,08,03,08,21,18.70
2012,08,03,08,22,18.70
2012,08,03,08,23,18.70
2012,08,03,08,24,18.70
2012,08,03,08,25,18.70
2012,08,03,08,26,18.80
2012,08,03,08,27,18.80
2012,08,03,08,28,18.80
2012,08,03,08,29,18.80
2012,08,03,08,30,18.80
2012,08,03,08,31,18.90
2012,08,03,08,32,18.90
2012,08,03,08,33,18.90
2012,08,03,08,34,18.90
2012,08,03,08,35,19.00
2012,08,03,08,36,19.00
2012,08,03,08,37,19.00
2012,08,03,08,38,19.10
2012,08,03,08,39,19.10
2012,08,03,08,40,19.10
2012,08,03,08,41,19.20
2012,08,03,08,42,19.20
2012,08,03,08,43,19.20
2012,08,03,08,44,19.30
2012,08,03,08,45,19.30
2012,08,03,08,46,19.30
2012,08,03,08,47,19.30
2012,08,03,08,48,19.40
2012,08,03,08,49,19.40
2012,08,03,08,50,19.40
2012,08,03,08,51,19.40
2012,08,03,08,52,19.50
2012,08,03,08,53,19.50
2012,08,03,08,54,19.60
2012,08,03,08,55,19.60
2012,08,03,08,56,19.60
2012,08,03,08,57,19.60
2012,08,03,08,58,19.60
2012,08,03,08,59,19.60
2012,08,03,09,00,19.60
2012,08,03,09,01,19.60
2012,08,03,09,02,19.60
2012,08,03,09,03,19.50
2012,08,03,09,04,19.60
2012,08,03,09,05,19.60
2012,08,03,09,06,19.60
2012,08,03,09,07,19.60
2012,08,03,09,08,19.60
2012,08,03,09,09,19.60
2012,08,03,09,10,19.70
2012,08,03,09,11,19.70
2012,08,03,09,12,19.80
2012,08,03,09,13,19.80
2012,08,03,09,14,19.90
2012,08,03,09,15,19.90
2012,08,03,09,16,19.90
2012,08,03,09,17,19.90
2012,08,03,09,18,20.00
2012,08,03,09,19,20.00
2012,08,03,09,20,20.00
2012,08,03,09,21,20.00
2012,08,03,09,22,19.90
2012,08,03,09,23,19.90
2012,08,03,09,24,20.00
2012,08,03,09,25,20.10
2012,08,03,09,26,20.10
2012,08,03,09,27,20.20
2012,08,03,09,28,20.20
2012,08,03,09,29,20.20
2012,08,03,09,30,20.30
2012,08,03,09,31,20.30
2012,08,03,09,32,20.40
2012,08,03,09,33,20.40
2012,08,03,09,34,20.40
2012,08,03,09,35,20.50
2012,08,03,09,36,20.50
2012,08,03,09,37,20.50
2012,08,03,09,38,20.50
2012,08,03,09,39,20.60
2012,08,03,09,40,20.60
2012,08,03,09,41,20.60
2012,08,03,09,42,20.60
2012,08,03,09,43,20.60
2012,08,03,09,44,20.70
2012,08,03,09,45,20.70
2012,08,03,09,46,20.80
2012,08,03,09,47,20.80
2012,08,03,09,48,20.80
2012,08,03,09,49,20.90
2012,08,03,09,50,20.90
2012,08,03,09,51,20.90
2012,08,03,09,52,21.00
2012,08,03,09,53,21.00
2012,08,03,09,54,21.00
2012,08,03,09,55,21.00
2012,08,03,09,56,21.10
2012,08,03,09,57,21.10
2012,08,03,09,58,21.00
2012,08,03,09,59,21.10
2012,08,03,10,00,21.10
2012,08,03,10,01,21.20
2012,08,03,10,02,21.20
2012,08,03,10,03,21.20
2012,08,03,10,04,21.30
2012,08,03,10,05,21.30
2012,08,03,10,06,21.40
2012,08,03,10,07,21.40
2012,08,03,10,08,21.40
2012,08,03,10,09,21.50
2012,08,03,10,10,21.50
2012,08,03,10,11,21.50
2012,08,03,10,12,21.60
2012,08,03,10,13,21.60
2012,08,03,10,14,21.70
2012,08,03,10,15,21.80
2012,08,03,10,16,21.80
2012,08,03,10,17,21.90
2012,08,03,10,18,21.90
2012,08,03,10,19,21.90
2012,08,03,10,20,21.90
2012,08,03,10,21,22.00
2012,08,03,10,22,22.10
2012,08,03,10,23,22.20
2012,08,03,10,24,22.20
2012,08,03,10,25,22.20
2012,08,03,10,26,22.20
2012,08,03,10,27,22.30
2012,08,03,10,28,22.30
2012,08,03,10,29,22.30
2012,08,03,10,30,22.30
2012,08,03,10,31,22.40
2012,08,03,10,32,22.40
2012,08,03,10,33,22.50
2012,08,03,10,34,22.50
2012,08,03,10,35,22.60
2012,08,03,10,36,22.60
2012,08,03,10,37,22.50
2012,08,03,10,38,22.50
2012,08,03,10,39,22.50
2012,08,03,10,40,22.50
2012,08,03,10,41,22.50
2012,08,03,10,42,22.60
2012,08,03,10,43,22.60
2012,08,03,10,44,22.80
2012,08,03,10,45,22.80
2012,08,03,10,46,22.80
2012,08,03,10,47,22.90
2012,08,03,10,48,22.90
2012,08,03,10,49,22.90
2012,08,03,10,50,23.00
2012,08,03,10,51,23.00
2012,08,03,10,52,23.10
2012,08,03,10,53,23.10
2012,08,03,10,54,23.10
2012,08,03,10,55,23.10
2012,08,03,10,56,23.10
2012,08,03,10,57,23.10
2012,08,03,10,58,23.10
2012,08,03,10,59,23.10
2012,08,03,11,00,23.10
2012,08,03,11,01,23.10
2012,08,03,11,02,23.00
2012,08,03,11,03,23.00
2012,08,03,11,04,23.00
2012,08,03,11,05,22.90
2012,08,03,11,06,22.90
2012,08,03,11,07,23.00
2012,08,03,11,08,23.20
2012,08,03,11,09,23.30
2012,08,03,11,10,23.40
2012,08,03,11,11,23.50
2012,08,03,11,12,23.60
2012,08,03,11,13,23.60
2012,08,03,11,14,23.70
2012,08,03,11,15,23.70
2012,08,03,11,16,23.80
2012,08,03,11,17,23.90
2012,08,03,11,18,24.00
2012,08,03,11,19,24.00
2012,08,03,11,20,24.10
2012,08,03,11,21,24.10
2012,08,03,11,22,24.10
2012,08,03,11,23,24.10
2012,08,03,11,24,24.10
2012,08,03,11,25,24.10
2012,08,03,11,26,24.10
2012,08,03,11,27,24.00
2012,08,03,11,28,24.10
2012,08,03,11,29,24.10
2012,08,03,11,30,24.00
2012,08,03,11,31,23.90
2012,08,03,11,32,23.80
2012,08,03,11,33,23.80
2012,08,03,11,34,23.90
2012,08,03,11,35,24.00
2012,08,03,11,36,24.10
2012,08,03,11,37,24.10
2012,08,03,11,38,24.20
2012,08,03,11,39,24.20
2012,08,03,11,40,24.10
2012,08,03,11,41,24.10
2012,08,03,11,42,24.00
2012,08,03,11,43,23.90
2012,08,03,11,44,23.90
2012,08,03,11,45,23.90
2012,08,03,11,46,23.90
2012,08,03,11,47,23.80
2012,08,03,11,48,23.80
2012,08,03,11,49,23.90
2012,08,03,11,50,23.80
2012,08,03,11,51,23.80
2012,08,03,11,52,23.80
2012,08,03,11,53,23.70
2012,08,03,11,54,23.80
2012,08,03,11,55,23.90
2012,08,03,11,56,23.90
2012,08,03,11,57,24.00
2012,08,03,11,58,24.10
2012,08,03,11,59,24.10
2012,08,03,12,00,24.20
2012,08,03,12,01,24.20
2012,08,03,12,02,24.20
2012,08,03,12,03,24.20
2012,08,03,12,04,24.30
2012,08,03,12,05,24.30
2012,08,03,12,06,24.30
2012,08,03,12,07,24.40
2012,08,03,12,08,24.40
2012,08,03,12,09,24.30
2012,08,03,12,10,24.30
2012,08,03,12,11,24.30
2012,08,03,12,12,24.30
2012,08,03,12,13,24.30
2012,08,03,12,14,24.30
2012,08,03,12,15,24.30
2012,08,03,12,16,24.30
2012,08,03,12,17,24.30
2012,08,03,12,18,24.40
2012,08,03,12,19,24.40
2012,08,03,12,20,24.40
2012,08,03,12,21,24.50
2012,08,03,12,22,24.60
2012,08,03,12,23,24.60
2012,08,03,12,24,24.60
2012,08,03,12,25,24.70
2012,08,03,12,26,24.80
2012,08,03,12,27,24.70
2012,08,03,12,28,24.70
2012,08,03,12,29,24.70
2012,08,03,12,30,24.70
2012,08,03,12,31,24.70
2012,08,03,12,32,24.70
2012,08,03,12,33,24.80
2012,08,03,12,34,24.70
2012,08,03,12,35,24.70
2012,08,03,12,36,24.60
2012,08,03,12,37,24.50
2012,08,03,12,38,24.50
2012,08,03,12,39,24.50
2012,08,03,12,40,24.60
2012,08,03,12,41,24.80
2012,08,03,12,42,24.80
2012,08,03,12,43,24.80
2012,08,03,12,44,24.90
2012,08,03,12,45,24.90
2012,08,03,12,46,25.00
2012,08,03,12,47,25.10
2012,08,03,12,48,25.10
2012,08,03,12,49,25.20
2012,08,03,12,50,25.20
2012,08,03,12,51,25.20
2012,08,03,12,52,25.30
2012,08,03,12,53,25.30
2012,08,03,12,54,25.30
2012,08,03,12,55,25.30
2012,08,03,12,56,25.30
2012,08,03,12,57,25.30
2012,08,03,12,58,25.30
2012,08,03,12,59,25.30
2012,08,03,13,00,25.30
2012,08,03,13,01,25.30
2012,08,03,13,02,25.20
2012,08,03,13,03,25.20
2012,08,03,13,04,25.30
2012,08,03,13,05,25.40
2012,08,03,13,06,25.50
2012,08,03,13,07,25.50
2012,08,03,13,08,25.50
2012,08,03,13,09,25.50
2012,08,03,13,10,25.50
2012,08,03,13,11,25.50
2012,08,03,13,12,25.60
2012,08,03,13,13,25.50
2012,08,03,13,14,25.40
2012,08,03,13,15,25.40
2012,08,03,13,16,25.40
2012,08,03,13,17,25.40
2012,08,03,13,18,25.40
2012,08,03,13,19,25.40
2012,08,03,13,20,25.40
2012,08,03,13,21,25.40
2012,08,03,13,22,25.40
2012,08,03,13,23,25.50
2012,08,03,13,24,25.60
2012,08,03,13,25,25.80
2012,08,03,13,26,25.90
2012,08,03,13,27,25.90
2012,08,03,13,28,25.90
2012,08,03,13,29,25.90
2012,08,03,13,30,25.90
2012,08,03,13,31,25.90
2012,08,03,13,32,25.80
2012,08,03,13,33,25.80
2012,08,03,13,34,25.80
2012,08,03,13,35,25.80
2012,08,03,13,36,25.80
2012,08,03,13,37,25.80
2012,08,03,13,38,25.80
2012,08,03,13,39,25.90
2012,08,03,13,40,25.90
2012,08,03,13,41,25.90
2012,08,03,13,42,25.90
2012,08,03,13,43,25.90
2012,08,03,13,44,25.90
2012,08,03,13,45,25.80
2012,08,03,13,46,25.70
2012,08,03,13,47,25.70
2012,08,03,13,48,25.70
2012,08,03,13,49,25.70
2012,08,03,13,50,25.70
2012,08,03,13,51,25.70
2012,08,03,13,52,25.70
2012,08,03,13,53,25.70
2012,08,03,13,54,25.70
2012,08,03,13,55,25.70
2012,08,03,13,56,25.70
2012,08,03,13,57,25.80
2012,08,03,13,58,25.90
2012,08,03,13,59,26.10
2012,08,03,14,00,26.20
2012,08,03,14,01,26.20
2012,08,03,14,02,26.20
2012,08,03,14,03,26.20
2012,08,03,14,04,26.20
2012,08,03,14,05,26.20
2012,08,03,14,06,26.20
2012,08,03,14,07,26.20
2012,08,03,14,08,26.20
2012,08,03,14,09,26.20
2012,08,03,14,10,26.20
2012,08,03,14,11,26.10
2012,08,03,14,12,26.20
2012,08,03,14,13,26.20
2012,08,03,14,14,26.20
2012,08,03,14,15,26.30
2012,08,03,14,16,26.40
2012,08,03,14,17,26.50
2012,08,03,14,18,26.60
2012,08,03,14,19,26.60
2012,08,03,14,20,26.60
2012,08,03,14,21,26.80
2012,08,03,14,22,26.90
2012,08,03,14,23,27.00
2012,08,03,14,24,27.10
2012,08,03,14,25,27.10
2012,08,03,14,26,27.00
2012,08,03,14,27,27.00
2012,08,03,14,28,26.90
2012,08,03,14,29,26.90
2012,08,03,14,30,26.90
2012,08,03,14,31,27.00
2012,08,03,14,32,27.00
2012,08,03,14,33,27.10
2012,08,03,14,34,27.00
2012,08,03,14,35,27.00
2012,08,03,14,36,26.90
2012,08,03,14,37,26.90
2012,08,03,14,38,26.80
2012,08,03,14,39,26.80
2012,08,03,14,40,26.80
2012,08,03,14,41,26.90
2012,08,03,14,42,26.90
2012,08,03,14,43,26.90
2012,08,03,14,44,26.90
2012,08,03,14,45,27.00
2012,08,03,14,46,27.10
2012,08,03,14,47,27.20
2012,08,03,14,48,27.20
2012,08,03,14,49,27.30
2012,08,03,14,50,27.40
2012,08,03,14,51,27.50
2012,08,03,14,52,27.60
2012,08,03,14,53,27.50
2012,08,03,14,54,27.40
2012,08,03,14,55,27.30
2012,08,03,14,56,27.30
2012,08,03,14,57,27.30
2012,08,03,14,58,27.30
2012,08,03,14,59,27.30
2012,08,03,15,00,27.30
2012,08,03,15,01,27.40
2012,08,03,15,02,27.40
2012,08,03,15,03,27.30
2012,08,03,15,04,27.30
2012,08,03,15,05,27.30
2012,08,03,15,06,27.30
2012,08,03,15,07,27.40
2012,08,03,15,08,27.60
2012,08,03,15,09,27.70
2012,08,03,15,10,27.70
2012,08,03,15,11,27.80
2012,08,03,15,12,27.80
2012,08,03,15,13,27.90
2012,08,03,15,14,27.90
2012,08,03,15,15,27.90
2012,08,03,15,16,27.90
2012,08,03,15,17,27.80
2012,08,03,15,18,27.80
2012,08,03,15,19,27.80
2012,08,03,15,20,27.80
2012,08,03,15,21,27.80
2012,08,03,15,22,27.90
2012,08,03,15,23,27.90
2012,08,03,15,24,27.90
2012,08,03,15,25,27.90
2012,08,03,15,26,28.00
2012,08,03,15,27,28.00
2012,08,03,15,28,28.00
2012,08,03,15,29,27.90
2012,08,03,15,30,27.90
2012,08,03,15,31,27.90
2012,08,03,15,32,28.00
2012,08,03,15,33,28.10
2012,08,03,15,34,28.10
2012,08,03,15,35,28.10
2012,08,03,15,36,28.00
2012,08,03,15,37,27.90
2012,08,03,15,38,27.80
2012,08,03,15,39,27.70
2012,08,03,15,40,27.70
2012,08,03,15,41,27.80
2012,08,03,15,42,27.80
2012,08,03,15,43,27.90
2012,08,03,15,44,27.90
2012,08,03,15,45,28.00
2012,08,03,15,46,28.10
2012,08,03,15,47,28.20
2012,08,03,15,48,28.20
2012,08,03,15,49,28.30
2012,08,03,15,50,28.20
2012,08,03,15,51,28.20
2012,08,03,15,52,28.20
2012,08,03,15,53,28.20
2012,08,03,15,54,28.20
2012,08,03,15,55,28.20
2012,08,03,15,56,28.20
2012,08,03,15,57,28.30
2012,08,03,15,58,28.40
2012,08,03,15,59,28.50
2012,08,03,16,00,28.50
2012,08,03,16,01,28.60
2012,08,03,16,02,28.60
2012,08,03,16,03,28.60
2012,08,03,16,04,28.50
2012,08,03,16,05,28.50
2012,08,03,16,06,28.50
2012,08,03,16,07,28.50
2012,08,03,16,08,28.50
2012,08,03,16,09,28.60
2012,08,03,16,10,28.60
2012,08,03,16,11,28.60
2012,08,03,16,12,28.60
2012,08,03,16,13,28.60
2012,08,03,16,14,28.60
2012,08,03,16,15,28.60
2012,08,03,16,16,28.70
2012,08,03,16,17,28.70
2012,08,03,16,18,28.70
2012,08,03,16,19,28.60
2012,08,03,16,20,28.60
2012,08,03,16,21,28.50
2012,08,03,16,22,28.40
2012,08,03,16,23,28.40
2012,08,03,16,24,28.40
2012,08,03,16,25,28.40
2012,08,03,16,26,28.40
2012,08,03,16,27,28.50
2012,08,03,16,28,28.50
2012,08,03,16,29,28.60
2012,08,03,16,30,28.70
2012,08,03,16,31,28.80
2012,08,03,16,32,28.80
2012,08,03,16,33,28.80
2012,08,03,16,34,28.90
2012,08,03,16,35,28.90
2012,08,03,16,36,28.80
2012,08,03,16,37,28.80
2012,08,03,16,38,28.90
2012,08,03,16,39,29.00
2012,08,03,16,40,29.00
2012,08,03,16,41,29.00
2012,08,03,16,42,29.10
2012,08,03,16,43,29.10
2012,08,03,16,44,29.10
2012,08,03,16,45,29.10
2012,08,03,16,46,29.00
2012,08,03,16,47,28.90
2012,08,03,16,48,28.90
2012,08,03,16,49,28.90
2012,08,03,16,50,28.90
2012,08,03,16,51,28.90
2012,08,03,16,52,28.90
2012,08,03,16,53,28.90
2012,08,03,16,54,28.90
2012,08,03,16,55,28.80
2012,08,03,16,56,28.80
2012,08,03,16,57,28.80
2012,08,03,16,58,28.80
2012,08,03,16,59,28.90
2012,08,03,17,00,28.90
2012,08,03,17,01,28.90
2012,08,03,17,02,28.90
2012,08,03,17,03,28.90
2012,08,03,17,04,28.90
2012,08,03,17,05,29.00
2012,08,03,17,06,29.00
2012,08,03,17,07,29.00
2012,08,03,17,08,28.90
2012,08,03,17,09,29.00
2012,08,03,17,10,29.00
2012,08,03,17,11,29.10
2012,08,03,17,12,29.10
2012,08,03,17,13,29.00
2012,08,03,17,14,28.90
2012,08,03,17,15,28.90
2012,08,03,17,16,28.80
2012,08,03,17,17,28.80
2012,08,03,17,18,28.80
2012,08,03,17,19,28.80